Location: Gwatt
(46.7204°N, 7.6223°E)
Time: 17:42:29
(UTC+00:00)

deb Explorer IX - Pass Details

Date: 29 January 2021
Orbit: 537 x 1102 km, 38.8° (Epoch: 04 March)

Event Time Altitude Azimuth Distance (km) Brightness Sun altitude
Rises 17:53:52 0° 262° (W) 3,784 ? -14.7°
Reaches altitude 10° 17:56:52 10° 255° (WSW) 2,761 ? -15.2°
Maximum altitude 18:02:56 38° 190° (S) 1,343 ? -16.2°
Enters shadow 18:07:17 15° 128° (SE) 2,104 ? -16.9°
Drops below altitude 10° 18:08:13 10° 123° (ESE) 2,400 - -17.1°
Sets 18:10:40 0° 116° (ESE) 3,238 - -17.5°
